Mojave, CA

9:56 PM PST on November 17, 2019 (GMT -0800)
Mojave

Weather History for KMHV - June, 2019

Change the Weather History Date:

Sunday, June 9, 2019

  Actual Average Record
Temperature  
Mean Temperature 73 °F -  
Max Temperature 89 °F 86 °F 103 °F (1973)
Min Temperature 57 °F 59 °F 46 °F (1988)
Cooling Degree Days 8    
Growing Degree Days 23 (Base 50)    
Moisture  
Dew Point 25 °F    
Average Humidity 16    
Maximum Humidity 34    
Minimum Humidity 9    
Precipitation  
Precipitation 0.00 in - - ()
Sea Level Pressure  
Sea Level Pressure 30.11 in    
Wind  
Wind Speed 9 mph (NE)    
Max Wind Speed 21 mph    
Max Gust Speed 29 mph    
Visibility 10 miles    
Events      
Averages and records for this station are not official NWS values.
T = Trace of Precipitation, MM = Missing Value Source: NWS Daily Summary

Daily Weather History Graph

Daily Weather History Graph

Search for Another Location

Airport or City:

Astronomy

Jun. 09, 2019 Rise Set
Actual Time 5:38 AM PDT 8:05 PM PDT
Civil Twilight 5:08 AM PDT 8:35 PM PDT
Nautical Twilight 4:32 AM PDT 9:11 PM PDT
Astronomical Twilight 3:51 AM PDT 9:52 PM PDT
Moon 12:13 PM PDT (6/9) 12:55 AM PDT (6/9)
Length of Visible Light 15h 26m
Length of Day
14h 27m
Waxing Crescent, 45% of the Moon is Illuminated
Jun 9
Waxing Crescent
Jun 9
First Quarter
Jun 17
Full
Jun 25
Last Quarter
Jul 2
New

Hourly Weather History & Observations

Time (PDT) Temp. Dew Point Humidity Pressure Visibility Wind Dir Wind Speed Gust Speed Precip Events Conditions
12:00 AM 69.8 °F 24.8 °F 18% 30.05 in 10.0 mi NNE 9.2 mph - N/A   Clear
12:20 AM 69.8 °F 26.6 °F 20% 30.05 in 10.0 mi North 8.1 mph - N/A   Clear
12:40 AM 69.8 °F 26.6 °F 20% 30.05 in 10.0 mi NNE 5.8 mph - N/A   Clear
1:00 AM 69.8 °F 24.8 °F 18% 30.05 in 10.0 mi NNE 8.1 mph - N/A   Clear
1:20 AM 68.0 °F 24.8 °F 20% 30.05 in 10.0 mi ENE 6.9 mph - N/A   Clear
1:40 AM 66.2 °F 24.8 °F 21% 30.05 in 10.0 mi NE 8.1 mph - N/A   Clear
2:00 AM 66.2 °F 24.8 °F 21% 30.05 in 10.0 mi NE 6.9 mph - N/A   Clear
2:20 AM 66.2 °F 24.8 °F 21% 30.05 in 10.0 mi NNE 9.2 mph - N/A   Clear
2:40 AM 68.0 °F 24.8 °F 20% 30.05 in 10.0 mi NE 9.2 mph - N/A   Clear
3:00 AM 66.2 °F 24.8 °F 21% 30.06 in 10.0 mi NNE 5.8 mph - N/A   Clear
3:20 AM 64.4 °F 24.8 °F 22% 30.05 in 10.0 mi NNE 5.8 mph - N/A   Clear
3:40 AM 64.4 °F 24.8 °F 22% 30.06 in 10.0 mi Calm Calm - N/A   Clear
4:00 AM 64.4 °F 24.8 °F 22% 30.07 in 10.0 mi Calm Calm - N/A   Clear
4:20 AM 64.4 °F 24.8 °F 22% 30.07 in 10.0 mi Calm Calm - N/A   Clear
4:40 AM 60.8 °F 26.6 °F 27% 30.08 in 10.0 mi Calm Calm - N/A   Clear
5:00 AM 59.0 °F 28.4 °F 31% 30.08 in 10.0 mi Calm Calm - N/A   Clear
5:20 AM 57.2 °F 28.4 °F 33% 30.09 in 10.0 mi NW 4.6 mph - N/A   Clear
5:40 AM 57.2 °F 28.4 °F 33% 30.10 in 10.0 mi NNW 3.5 mph - N/A   Clear
6:00 AM 57.2 °F 28.4 °F 33% 30.11 in 10.0 mi NW 5.8 mph - N/A   Clear
6:20 AM 59.0 °F 30.2 °F 34% 30.11 in 10.0 mi NW 4.6 mph - N/A   Clear
6:40 AM 62.6 °F 32.0 °F 32% 30.12 in 10.0 mi North 3.5 mph - N/A   Clear
7:00 AM 68.0 °F 24.8 °F 20% 30.13 in 10.0 mi NE 6.9 mph - N/A   Clear
7:20 AM 71.6 °F 23.0 °F 16% 30.14 in 10.0 mi NE 10.4 mph - N/A   Clear
7:40 AM 73.4 °F 21.2 °F 14% 30.15 in 10.0 mi NE 11.5 mph - N/A   Clear
8:00 AM 75.2 °F 21.2 °F 13% 30.16 in 10.0 mi NE 11.5 mph 18.4 mph N/A   Clear
8:20 AM 75.2 °F 21.2 °F 13% 30.16 in 10.0 mi ENE 11.5 mph 17.3 mph N/A   Clear
8:40 AM 77.0 °F 21.2 °F 12% 30.16 in 10.0 mi NE 12.7 mph - N/A   Clear
9:00 AM 78.8 °F 21.2 °F 12% 30.16 in 10.0 mi NE 18.4 mph - N/A   Clear
9:20 AM 78.8 °F 21.2 °F 12% 30.17 in 10.0 mi NE 20.7 mph 27.6 mph N/A   Clear
9:40 AM 80.6 °F 21.2 °F 11% 30.17 in 10.0 mi ENE 16.1 mph 23.0 mph N/A   Clear
10:00 AM 80.6 °F 21.2 °F 11% 30.16 in 10.0 mi NE 18.4 mph 25.3 mph N/A   Clear
10:20 AM 82.4 °F 21.2 °F 10% 30.16 in 10.0 mi NNE 20.7 mph 26.5 mph N/A   Clear
10:40 AM 82.4 °F 21.2 °F 10% 30.16 in 10.0 mi NE 18.4 mph 24.2 mph N/A   Clear
11:00 AM 84.2 °F 21.2 °F 10% 30.16 in 10.0 mi ENE 17.3 mph 25.3 mph N/A   Clear
11:20 AM 84.2 °F 21.2 °F 10% 30.16 in 10.0 mi East 15.0 mph 28.8 mph N/A   Clear
11:40 AM 86.0 °F 23.0 °F 10% 30.15 in 10.0 mi ESE 16.1 mph - N/A   Clear
12:00 PM 86.0 °F 23.0 °F 10% 30.15 in 10.0 mi ENE 15.0 mph 25.3 mph N/A   Clear
12:20 PM 86.0 °F 23.0 °F 10% 30.15 in 10.0 mi ENE 12.7 mph 25.3 mph N/A   Clear
12:40 PM 87.8 °F 23.0 °F 9% 30.14 in 10.0 mi East 15.0 mph 28.8 mph N/A   Clear
1:00 PM 86.0 °F 23.0 °F 10% 30.13 in 10.0 mi NE 18.4 mph - N/A   Clear
1:20 PM 87.8 °F 24.8 °F 10% 30.13 in 10.0 mi ENE 19.6 mph - N/A   Clear
1:40 PM 87.8 °F 24.8 °F 10% 30.13 in 10.0 mi ENE 13.8 mph 20.7 mph N/A   Clear
2:00 PM 87.8 °F 24.8 °F 10% 30.13 in 10.0 mi East 16.1 mph 21.9 mph N/A   Clear
2:20 PM 87.8 °F 24.8 °F 10% 30.12 in 10.0 mi East 19.6 mph - N/A   Clear
2:40 PM 87.8 °F 24.8 °F 10% 30.12 in 10.0 mi East 18.4 mph - N/A   Clear
3:00 PM 87.8 °F 24.8 °F 10% 30.11 in 10.0 mi East 18.4 mph - N/A   Clear
3:20 PM 87.8 °F 24.8 °F 10% 30.11 in 10.0 mi East 11.5 mph 18.4 mph N/A   Clear
3:40 PM 87.8 °F 24.8 °F 10% 30.11 in 10.0 mi ENE 10.4 mph 21.9 mph N/A   Clear
4:00 PM 89.6 °F 24.8 °F 10% 30.10 in 10.0 mi ENE 17.3 mph 24.2 mph N/A   Clear
4:20 PM 89.6 °F 24.8 °F 10% 30.09 in 10.0 mi NE 12.7 mph 21.9 mph N/A   Clear
4:40 PM 87.8 °F 24.8 °F 10% 30.09 in 10.0 mi ENE 13.8 mph 23.0 mph N/A   Clear
5:00 PM 89.6 °F 24.8 °F 10% 30.09 in 10.0 mi East 8.1 mph 25.3 mph N/A   Clear
5:20 PM 89.6 °F 24.8 °F 10% 30.08 in 10.0 mi NE 12.7 mph 19.6 mph N/A   Clear
5:40 PM 89.6 °F 24.8 °F 10% 30.08 in 10.0 mi NE 12.7 mph 19.6 mph N/A   Clear
6:00 PM 87.8 °F 23.0 °F 9% 30.07 in 10.0 mi ENE 15.0 mph - N/A   Clear
6:20 PM 87.8 °F 23.0 °F 9% 30.07 in 10.0 mi NE 11.5 mph - N/A   Clear
6:40 PM 87.8 °F 23.0 °F 9% 30.07 in 10.0 mi East 12.7 mph - N/A   Clear
7:00 PM 87.8 °F 23.0 °F 9% 30.08 in 10.0 mi ENE 11.5 mph - N/A   Clear
7:20 PM 86.0 °F 23.0 °F 10% 30.08 in 10.0 mi ENE 11.5 mph - N/A   Clear
7:40 PM 84.2 °F 24.8 °F 11% 30.08 in 10.0 mi NE 8.1 mph - N/A   Clear
8:00 PM 82.4 °F 24.8 °F 12% 30.09 in 10.0 mi NE 8.1 mph - N/A   Clear
8:20 PM 80.6 °F 24.8 °F 13% 30.09 in 10.0 mi NE 5.8 mph - N/A   Clear
8:40 PM 78.8 °F 24.8 °F 14% 30.09 in 10.0 mi North 5.8 mph - N/A   Clear
9:00 PM 77.0 °F 24.8 °F 14% 30.09 in 10.0 mi North 6.9 mph - N/A   Clear
9:20 PM 75.2 °F 24.8 °F 15% 30.10 in 10.0 mi North 10.4 mph - N/A   Clear
9:40 PM 75.2 °F 26.6 °F 17% 30.10 in 10.0 mi North 8.1 mph - N/A   Clear
10:00 PM 75.2 °F 26.6 °F 17% 30.11 in 10.0 mi North 9.2 mph - N/A   Clear
10:20 PM 73.4 °F 26.6 °F 18% 30.12 in 10.0 mi North 9.2 mph - N/A   Clear
10:40 PM 71.6 °F 26.6 °F 19% 30.12 in 10.0 mi NNW 9.2 mph - N/A   Clear
11:00 PM 71.6 °F 28.4 °F 20% 30.12 in 10.0 mi NNW 8.1 mph - N/A   Clear
11:20 PM 71.6 °F 28.4 °F 20% 30.12 in 10.0 mi NNW 8.1 mph - N/A   Clear
11:40 PM 71.6 °F 28.4 °F 20% 30.12 in 10.0 mi NNW 9.2 mph - N/A   Clear